Hourly Data Report for October 02, 2013

All times are specified in Local Standard Time (LST). Add 1 hour to adjust for Daylight Saving Time where and when it is observed.

FORT LIARD
NORTHWEST TERRITORIES

60°14'00.000" N
123°28'00.000" W
213.40 m
2201579
71497
WJL

Download Data

Hourly Data (October 2013)
Hourly Data Report for October 2, 2013
Temp Definition
°C
Dew Point Temp Definition
°C
Rel Hum Definition
%
Wind Dir Definition
10's deg

Wind Spd Definition
km/h
Visibility Definition
km
Stn Press Definition
kPa
Hmdx Definition


Wind Chill Definition


Weather Definition


TIME
00:00 2.1 1.6 96   0   99.40     LegendNANA
01:00 2.3 1.8 96   0   99.43     LegendNANA
02:00 2.1 1.6 96   0   99.47     LegendNANA
03:00 2.2 1.7 96 19 6   99.49     LegendNANA
04:00 2.1 1.6 96   0   99.51     LegendNANA
05:00 2.2 1.7 96 20 2   99.52     LegendNANA
06:00 2.3 1.8 96 21 2   99.52     LegendNANA
07:00 2.3 1.7 96 22 4   99.53     LegendNANA
08:00 2.4 1.9 96 20 6   99.56     LegendNANA
09:00 2.7 2.2 97 20 4   99.58     LegendNANA
10:00 3.1 2.6 97 23 6   99.59     LegendNANA
11:00 3.9 3.3 96 21 7   99.60     LegendNANA
12:00 4.8 3.5 91 21 7   99.60     LegendNANA
13:00 6.1 4.0 86 22 4   99.60     LegendNANA
14:00 7.7 2.9 72 23 9   99.57     LegendNANA
15:00 8.0 2.6 69 22 13   99.56     LegendNANA
16:00 8.2 2.7 68 22 11   99.57     LegendNANA
17:00 8.4 2.9 68 22 9   99.56     LegendNANA
18:00 7.1 2.8 74 21 6   99.56     LegendNANA
19:00 4.0 2.4 89 20 4   99.57     LegendNANA
20:00 3.2 1.8 91 21 4   99.59     LegendNANA
21:00 1.4 0.6 94   0   99.60     LegendNANA
22:00 0.9 0.1 94   0   99.59     LegendNANA
23:00 1.9 1.3 96 22 13   99.60     LegendNANA

Notes on Data Quality.

Legend

  • E = Estimated
  • M = Missing
  • NA = Not Available
  • ‡ = Partner data that is not subject to review by the National Climate Archives
Date modified: